Weather History for PAOT - February, 2013

Change the Weather History Date:

Saturday, February 23, 2013

  Actual Average Record
Temperature  
Mean Temperature -19 °F -  
Max Temperature -13 °F - 36 °F (2015)
Min Temperature -24 °F - -50 °F (1968)
Degree Days  
Heating Degree Days 84 65  
Month to date heating degree days 1641 1518  
Since 1 July heating degree days 9874 9917  
Cooling Degree Days 0    
Month to date cooling degree days 0  
Year to date cooling degree days 0  
Moisture  
Dew Point -25 °F    
Average Humidity 0    
Maximum Humidity 0    
Minimum Humidity 0    
Precipitation  
Precipitation T in 0.03 in 0.70 in (2011)
Month to date precipitation 0.92 0.54  
Year to date precipitation 2.04 1.16  
Snow  
Snow T in 0.30 in 8.50 in (2011)
Month to date snowfall 9.2 7.8  
Since 1 July snowfall 24.1 45.8  
Snow Depth 11.00 in    
Sea Level Pressure  
Sea Level Pressure 29.52 in    
Wind  
Wind Speed 9 mph (NNE)    
Max Wind Speed 16 mph    
Max Gust Speed 20 mph    
Visibility 10 miles    
Events      
T = Trace of Precipitation, MM = Missing Value Source: NWS Daily Summary

Daily Weather History Graph

Daily Weather History Graph

Search for Another Location

Airport or City:

Trip Planner

Search our weather history database for the weather conditions in past years. The results will help you decide how hot, cold, wet, or windy it might be!

Date:

Astronomy

Feb. 23, 2013 Rise Set
Actual Time 9:27 AM AKST 6:41 PM AKST
Civil Twilight 8:32 AM AKST 7:36 PM AKST
Nautical Twilight 7:31 AM AKST 8:37 PM AKST
Astronomical Twilight 6:28 AM AKST 9:40 PM AKST
Moon 4:39 PM AKST (2/23) 8:28 AM AKST (2/23)
Length of Visible Light 11h 03m
Length of Day
9h 14m
Waxing Gibbous, 96% of the Moon is Illuminated
Feb 23
Waxing Gibbous
Feb 25
Full
Mar 4
Last Quarter
Mar 11
New
Mar 19
First Quarter

Hourly Weather History & Observations

Time (AKST) Temp. Windchill Dew Point Humidity Pressure Visibility Wind Dir Wind Speed Gust Speed Precip Events Conditions
12:53 AM -20.9 °F -39.7 °F -26.0 °F 77% 29.62 in 10.0 mi NE 8.1 mph - 0.00 in   Mostly Cloudy
1:53 AM -18.9 °F -40.8 °F -26.0 °F 70% 29.60 in 10.0 mi NE 11.5 mph - N/A   Overcast
3:53 AM -20.0 °F -35.3 °F -26.0 °F 74% 29.58 in 10.0 mi NE 5.8 mph - N/A   Overcast
4:53 AM -17.0 °F -36.1 °F -24.0 °F 70% 29.58 in 10.0 mi NE 9.2 mph - N/A   Overcast
5:53 AM -16.1 °F -35.0 °F -23.1 °F 71% 29.56 in 10.0 mi NE 9.2 mph - N/A   Overcast
6:53 AM -17.0 °F -37.3 °F -24.0 °F 70% 29.55 in 10.0 mi NE 10.4 mph - N/A   Overcast
7:53 AM -22.0 °F -41.0 °F -27.9 °F 74% 29.54 in 10.0 mi North 8.1 mph - N/A   Mostly Cloudy
8:53 AM -22.0 °F -42.3 °F -27.9 °F 74% 29.54 in 10.0 mi NNE 9.2 mph - N/A   Scattered Clouds
9:53 AM -24.0 °F -44.8 °F -29.0 °F 77% 29.53 in 10.0 mi NE 9.2 mph - N/A   Partly Cloudy
10:53 AM -22.0 °F -44.7 °F -29.0 °F 70% 29.53 in 10.0 mi NNE 11.5 mph - N/A   Partly Cloudy
11:53 AM -22.0 °F -41.0 °F -29.0 °F 70% 29.52 in 10.0 mi NE 8.1 mph - N/A   Partly Cloudy
12:53 PM -20.9 °F -36.4 °F -27.9 °F 70% 29.52 in 10.0 mi NNE 5.8 mph - N/A   Partly Cloudy
1:53 PM -18.9 °F -38.6 °F -26.0 °F 70% 29.51 in 10.0 mi NE 9.2 mph - N/A   Partly Cloudy
2:53 PM -17.0 °F -34.8 °F -25.1 °F 67% 29.49 in 10.0 mi NNE 8.1 mph - N/A   Partly Cloudy
3:53 PM -16.1 °F -37.2 °F -25.1 °F 64% 29.48 in 10.0 mi NNE 11.5 mph - N/A   Partly Cloudy
4:53 PM -16.1 °F -33.7 °F -24.0 °F 67% 29.48 in 10.0 mi NNE 8.1 mph - N/A   Mostly Cloudy
5:53 PM -16.1 °F -39.9 °F -23.1 °F 71% 29.47 in 10.0 mi NNE 15.0 mph - N/A   Overcast
6:53 PM -17.0 °F -38.4 °F -24.0 °F 70% 29.47 in 10.0 mi NNE 11.5 mph - N/A   Overcast
7:53 PM -16.1 °F -35.0 °F -24.0 °F 67% 29.47 in 10.0 mi NNE 9.2 mph - N/A   Overcast
8:53 PM -15.0 °F -33.7 °F -22.0 °F 71% 29.47 in 10.0 mi NNE 9.2 mph - N/A   Overcast
9:53 PM -15.0 °F -34.8 °F -22.0 °F 71% 29.47 in 10.0 mi NNE 10.4 mph - N/A   Overcast
10:53 PM -13.0 °F -32.4 °F -20.0 °F 71% 29.48 in 10.0 mi NNE 10.4 mph - N/A   Overcast
11:53 PM -13.0 °F -28.6 °F -20.0 °F 71% 29.48 in 10.0 mi NE 6.9 mph - N/A   Overcast